TAX04MA LOWI-LSZS

Flight info

Callsign TAX04MA
Flight time N/A
Altitude 30000
Route MOGTI P66 KPT L856 AKABI/N0470F290 L856 TRA N850 GERSA Z50 PELAD
Aircraft A320/M-SDE3FGHIRWY/LB1

Departure

Time N/A
Airport Innsbruck Airport (LOWI)

Arrival

Time 2026-04-20 16:27
Airport Engadin Airport (LSZS)
Time Latitude Longitude Altitude Speed Heading
2026-04-20 15:56 47.73857 10.30001 30058 ft 399 kts 286°
2026-04-20 15:56 47.74318 10.25929 30059 ft 401 kts 276°
2026-04-20 15:56 47.74203 10.17603 30057 ft 404 kts 271°
2026-04-20 15:57 47.74002 10.09261 30032 ft 404 kts 271°
2026-04-20 15:57 47.73794 10.00921 30028 ft 404 kts 271°
2026-04-20 15:58 47.73584 9.92571 30037 ft 404 kts 271°
2026-04-20 15:58 47.73380 9.84234 30038 ft 404 kts 271°
2026-04-20 15:59 47.73166 9.75883 30041 ft 404 kts 271°
2026-04-20 15:59 47.72939 9.67594 30026 ft 405 kts 271°
2026-04-20 16:00 47.72706 9.59246 30032 ft 405 kts 271°
2026-04-20 16:00 47.72465 9.50887 30028 ft 405 kts 271°
2026-04-20 16:01 47.72219 9.42528 30044 ft 405 kts 271°
2026-04-20 16:01 47.71989 9.34163 30033 ft 405 kts 271°
2026-04-20 16:02 47.71758 9.25801 30030 ft 406 kts 271°
2026-04-20 16:02 47.71525 9.17421 30024 ft 406 kts 271°
2026-04-20 16:03 47.71264 9.09030 30036 ft 407 kts 270°
2026-04-20 16:03 47.70983 9.00620 30039 ft 407 kts 270°
2026-04-20 16:04 47.70332 8.92319 30036 ft 415 kts 256°
2026-04-20 16:04 47.69008 8.88468 30037 ft 427 kts 239°
2026-04-20 16:04 47.66845 8.85260 30004 ft 442 kts 223°
2026-04-20 16:05 47.61540 8.80531 30038 ft 445 kts 218°
2026-04-20 16:05 47.56178 8.75944 30057 ft 444 kts 218°
2026-04-20 16:06 47.50876 8.71383 30056 ft 443 kts 218°
2026-04-20 16:06 47.45554 8.66778 30029 ft 442 kts 219°
2026-04-20 16:07 47.40251 8.62200 30063 ft 440 kts 219°
2026-04-20 16:07 47.34964 8.57651 30068 ft 439 kts 219°
2026-04-20 16:08 47.29678 8.53210 30064 ft 444 kts 214°
2026-04-20 16:08 47.26757 8.51588 30035 ft 456 kts 204°
2026-04-20 16:08 47.23602 8.50756 30041 ft 468 kts 193°
2026-04-20 16:09 47.20290 8.50803 30044 ft 481 kts 182°
2026-04-20 16:09 47.16961 8.51307 30050 ft 481 kts 182°
2026-04-20 16:09 47.10309 8.52812 30049 ft 493 kts 170°
2026-04-20 16:10 47.07095 8.54718 30035 ft 505 kts 158°
2026-04-20 16:10 47.04142 8.57544 30018 ft 514 kts 146°
2026-04-20 16:10 47.01550 8.61221 30021 ft 522 kts 133°
2026-04-20 16:10 46.99457 8.65612 30022 ft 526 kts 121°
2026-04-20 16:11 46.96014 8.75065 30025 ft 526 kts 120°
2026-04-20 16:11 46.92575 8.84513 29999 ft 525 kts 120°
2026-04-20 16:12 46.89686 8.92327 29987 ft 526 kts 123°
2026-04-20 16:12 46.87672 8.96764 29108 ft 519 kts 130°
2026-04-20 16:12 46.84676 9.02196 26705 ft 517 kts 132°
2026-04-20 16:13 46.82378 9.06241 24916 ft 515 kts 133°
2026-04-20 16:13 46.80084 9.10242 23040 ft 513 kts 132°
2026-04-20 16:13 46.78540 9.12930 21769 ft 509 kts 131°
2026-04-20 16:13 46.76293 9.16855 20172 ft 498 kts 131°
2026-04-20 16:14 46.74136 9.20640 18798 ft 486 kts 131°
2026-04-20 16:14 46.72010 9.24389 17395 ft 475 kts 131°
2026-04-20 16:14 46.69936 9.28058 16379 ft 457 kts 131°
2026-04-20 16:14 46.67981 9.31520 15771 ft 429 kts 131°
2026-04-20 16:15 46.66094 9.34844 15055 ft 425 kts 131°
2026-04-20 16:15 46.64218 9.38125 14375 ft 418 kts 131°
2026-04-20 16:15 46.62337 9.41304 13722 ft 411 kts 136°
2026-04-20 16:15 46.60207 9.43962 13157 ft 392 kts 147°
2026-04-20 16:16 46.57950 9.45894 12953 ft 360 kts 157°
2026-04-20 16:16 46.55758 9.47157 12975 ft 329 kts 165°
2026-04-20 16:16 46.53596 9.48142 12979 ft 313 kts 165°
2026-04-20 16:16 46.51626 9.49050 12984 ft 290 kts 165°
2026-04-20 16:17 46.49775 9.49902 12973 ft 268 kts 166°
2026-04-20 16:17 46.48041 9.50698 12793 ft 255 kts 166°
2026-04-20 16:17 46.46396 9.51445 12701 ft 238 kts 166°
2026-04-20 16:17 46.44892 9.52126 12661 ft 216 kts 167°
2026-04-20 16:18 46.43492 9.52758 12600 ft 203 kts 166°
2026-04-20 16:18 46.42176 9.53347 12559 ft 196 kts 167°
2026-04-20 16:18 46.40895 9.53915 12506 ft 189 kts 167°
2026-04-20 16:18 46.39660 9.54466 12441 ft 184 kts 167°
2026-04-20 16:19 46.38440 9.55009 12399 ft 183 kts 167°
2026-04-20 16:19 46.37218 9.55552 12346 ft 183 kts 167°
2026-04-20 16:19 46.36004 9.56092 12315 ft 183 kts 167°
2026-04-20 16:19 46.34853 9.56868 12276 ft 186 kts 144°
2026-04-20 16:20 46.34017 9.58270 12237 ft 188 kts 116°
2026-04-20 16:20 46.33656 9.60066 12194 ft 186 kts 90°
2026-04-20 16:20 46.33827 9.61887 12148 ft 181 kts 64°
2026-04-20 16:20 46.34295 9.63567 12067 ft 180 kts 64°
2026-04-20 16:21 46.34761 9.65247 11971 ft 179 kts 64°
2026-04-20 16:21 46.35226 9.66921 11915 ft 178 kts 64°
2026-04-20 16:21 46.35808 9.68453 11814 ft 170 kts 49°
2026-04-20 16:21 46.36590 9.69717 11524 ft 169 kts 34°
2026-04-20 16:22 46.37504 9.70760 11155 ft 166 kts 33°
2026-04-20 16:22 46.38404 9.71783 10837 ft 165 kts 36°
2026-04-20 16:22 46.39306 9.72817 10482 ft 168 kts 32°
2026-04-20 16:22 46.40211 9.73854 10189 ft 166 kts 30°
2026-04-20 16:23 46.41113 9.74886 9869 ft 164 kts 33°
2026-04-20 16:23 46.42001 9.75901 9513 ft 161 kts 35°
2026-04-20 16:23 46.42870 9.76897 9184 ft 157 kts 33°
2026-04-20 16:23 46.43721 9.77870 8875 ft 155 kts 31°
2026-04-20 16:24 46.44562 9.78835 8563 ft 153 kts 33°
2026-04-20 16:24 46.45393 9.79788 8239 ft 151 kts 34°
2026-04-20 16:24 46.46216 9.80730 7955 ft 151 kts 37°
2026-04-20 16:24 46.47029 9.81662 7665 ft 148 kts 36°
2026-04-20 16:25 46.47833 9.82583 7394 ft 146 kts 37°
2026-04-20 16:25 46.48635 9.83500 7121 ft 146 kts 35°
2026-04-20 16:25 46.49431 9.84443 6841 ft 148 kts 37°
2026-04-20 16:25 46.50230 9.85372 6591 ft 149 kts 33°
2026-04-20 16:26 46.51037 9.86277 6316 ft 147 kts 33°
2026-04-20 16:26 46.51855 9.87137 5963 ft 141 kts 28°
2026-04-20 16:26 46.52699 9.87817 5649 ft 142 kts 25°
2026-04-20 16:26 46.53471 9.88423 5602 ft 108 kts 32°
2026-04-20 16:27 46.53916 9.88795 5585 ft 31 kts 31°
2026-04-20 16:27 46.54041 9.88901 5587 ft 8 kts 29°
2026-04-20 16:27 46.54057 9.88985 5586 ft 11 kts 116°
2026-04-20 16:27 46.53988 9.88995 5583 ft 11 kts 211°
2026-04-20 16:28 46.53925 9.88949 5587 ft 10 kts 207°
2026-04-20 16:28 46.53044 9.87972 5610 ft 0 kts 300°